Regional Weather Roundup
Issued by NWS

Home | Current Version | Previous Version | Text Only | Print | Product List | Glossary Off
Versions: 1 2 3 4 5 6 7 8 9 10 11 12 13 14 15 16 17 18 19 20 21 22 23 24 25 26 27 28 29 30 31 32 33 34 35 36 37 38 39 40 41 42 43 44 45 46 47 48

000
ASUS45 KPSR 232310
RWRAZ

ARIZONA HOURLY REGIONAL WEATHER ROUNDUP
NATIONAL WEATHER SERVICE PHOENIX AZ
400 PM MST FRI JUN 23 2017

NOTE: FAIR INDICATES FEW OR NO CLOUDS BELOW 12,000 FEET WITH NO
SIGNIFICANT WEATHER AND/OR OBSTRUCTIONS TO VISIBILITY.

AZZ001>003-036-240000-
NORTHWEST ARIZONA

CITY           SKY/WX    TMP DP  RH WIND       PRES   REMARKS
BULLHEAD CITY  SUNNY    117  39   7 W9        29.64F HX 109
KINGMAN        SUNNY    107  39  10 SW17G24   29.91F HX 101
$$

AZZ004>008-015-016-018-240000-
NORTH CENTRAL ARIZONA

CITY           SKY/WX    TMP DP  RH WIND       PRES   REMARKS
GRAND CANYON   MOSUNNY   90  24   9 W9        30.19F
PRESCOTT       MOSUNNY   98  29   8 W10G23    30.04F
FLAGSTAFF      PTSUNNY   92  22   8 W9G18     30.20F
PAYSON         MOSUNNY   97  41  14 W16G26    30.07F
PAGE           SUNNY    103  30   8 W7G17     29.92F
$$

AZZ009>014-017-240000-
NORTHEAST ARIZONA

CITY           SKY/WX    TMP DP  RH WIND       PRES   REMARKS
WINSLOW        MOSUNNY  101  19   5 E6        30.00F
SAINT JOHNS    SUNNY     98  16   5 MISG      30.06F
WINDOW ROCK    SUNNY     94  26   9 NW12G23   30.17F
SHOW LOW       MOSUNNY   91  18   6 NE6       30.15F
$$

AZZ540-542>544-546-548-240000-
GREATER PHOENIX AREA

CITY           SKY/WX    TMP DP  RH WIND       PRES   REMARKS
PHOENIX        MOSUNNY  111  47  12 W14G23    29.70F HX 107
BUCKEYE        SUNNY    111  45  10 W13       29.72F HX 106
GLENDALE       MOSUNNY  111  46  11 S12G23    29.72F HX 107
LUKE AFB       SUNNY    111  47  12 SW14      29.70F HX 107
DEER VALLEY    SUNNY    109  48  13 SW13G20   29.73F HX 105
SCOTTSDALE     SUNNY    109  47  12 SW10G18   29.75F HX 105
MESA-FALCON    MOSUNNY  109  52  15 W12G18    29.74F HX 107
MESA-GATEWAY   SUNNY    108  52  15 W12       29.74F HX 105
$$

AZZ539-553-240000-
SOUTHWEST MARICOPA COUNTY AND PINAL COUNTY

CITY           SKY/WX    TMP DP  RH WIND       PRES   REMARKS
CASA GRANDE    SUNNY    109  49  13 W16G23    29.75F HX 105
GILA BEND      SUNNY    111  44  10 W12       29.70F HX 106
$$

AZZ503-504-507>509-240000-
SOUTHEAST ARIZONA

CITY           SKY/WX    TMP DP  RH WIND       PRES   REMARKS
TUCSON         SUNNY    109  35   8 N15       29.85F HX 102
DAVIS-MONTHAN  SUNNY    107  30   7 NW20G25   29.83F HX 100
RYAN FIELD     SUNNY    108  39   9 NW13G18   29.83F HX 101
NOGALES        SUNNY    104  41  11 NW8G23    29.94F
SIERRA VISTA   SUNNY    100  35  10 NW10G18   30.02F
DOUGLAS        SUNNY    104  38  10 W13G23    29.92F
SAFFORD        SUNNY    111  28   5 W18G29    29.79F HX 103
$$

AZZ532-240000-
SOUTHWEST ARIZONA

CITY           SKY/WX    TMP DP  RH WIND       PRES   REMARKS
YUMA           MOSUNNY  109  50  14 S9        29.69F HX 106
$$

CAZ041-043-047-048-061-525>527-560>570-240000-
SOUTHERN CALIFORNIA

CITY           SKY/WX    TMP DP  RH WIND       PRES   REMARKS
DOWNTOWN L.A.  SUNNY     73  61  65 VRB6      29.88F
L.A. AIRPORT   PTSUNNY   68  60  75 W14       29.90S
SAN DIEGO      PTSUNNY   73  61  65 NW12      29.91F
BURBANK        SUNNY     82  60  47 SE8       29.88F
ONTARIO        MOSUNNY   89  60  37 W13       29.87S
RIVERSIDE      SUNNY     88  62  41 W14G20    29.86F
PALM SPRINGS   SUNNY    114  48  11 E12       29.70F HX 110
EL CENTRO NAS  MOSUNNY  109  58  18 SE8       29.67F HX 109
IMPERIAL       PTSUNNY  110  61  20 SE13      29.65F HX 112
BLYTHE         SUNNY    113  50  12 S21       29.67F HX 110
NEEDLES        PTSUNNY  118  32   5 VRB5      29.67F HX 109
$$

NVZ020-UTZ003-240000-
SOUTHERN NEVADA-UTAH

CITY           SKY/WX    TMP DP  RH WIND       PRES   REMARKS
LAS VEGAS      MOSUNNY  112  19   4 VRB3      29.78F HX 103
SALT LAKE CITY SUNNY     84  28  13 N9        30.12F
$$

NMZ009-TXZ055-240000-
NEW MEXICO-WEST TEXAS

CITY           SKY/WX    TMP DP  RH WIND       PRES   REMARKS
ALBUQUERQUE    PTSUNNY  100  15   4 W16       30.01F
EL PASO        MOSUNNY  108  21   4 NE7G17    29.82F
$$


........................KEY........................
SKY/WX - SKY CONDITION/WEATHER
TMP    - TEMPERATURE IN FAHRENHEIT
DP     - DEW POINT IN FAHRENHEIT
RH     - RELATIVE HUMIDITY IN PERCENT
WIND   - DIRECTION AND SPEED IN MILES PER HOUR (MPH)
VRB    - VARIABLE WIND DIRECTION
PRES   - MEAN SEA LEVEL PRESSURE IN INCHES OF MERCURY
         F - FALLING PRESSURE   R - RISING PRESSURE
         S - STEADY PRESSURE
VSB    - VISIBILITY IN MILES
HX     - HEAT INDEX IN FAHRENHEIT
WCI    - WIND CHILL INDEX IN FAHRENHEIT
TC     - TEMPERATURE IN CELSIUS WHICH IS ALSO KNOWN AS
         TEMPERATURE IN CENTIGRADE
AFB    - AIR FORCE BASE
         LUKE AFB IS LUKE AIR FORCE BASE
         DAVIS-MONTHAN IS DAVIS-MONTHAN AIR FORCE BASE
NAS    - NAVAL AIR STATION
         EL CENTRO NAS IS EL CENTRO NAVAL AIR STATION
N/A    - NOT AVAILABLE





USA.gov is the U.S. government's official web portal to all federal, state and local government web resources and services.